This demonstration page uses our WeatherBlox Daily Observations layout. Learn more.

Left ArrowRight Arrow

Hourly Observations for May 13, 2021

Temp ( °F °C ) Dew Point ( °F °C ) Humidity (%) Winds ( mph kmh ) Pressure ( in mb ) Visibility ( mi km ) Precip ( " mm )
12:53 am 00:53 Clear 43 6.1 38 3.3 82 82 N N/A 30.38 1029 10 16 N/A
1:53 am 01:53 Clear 41 5 39 3.9 93 93 N N/A 30.39 1029 10 16 N/A
2:53 am 02:53 Clear 40 4.4 38 3.3 93 93 N N/A 30.38 1029 10 16 N/A
3:53 am 03:53 Clear 39 3.9 38 3.3 96 96 N N/A 30.38 1029 10 16 N/A
4:53 am 04:53 Clear 37 2.8 36 2.2 96 96 N N/A 30.38 1029 10 16 N/A
5:53 am 05:53 Clear 37 2.8 36 2.2 96 96 N N/A 30.39 1029 10 16 N/A
6:53 am 06:53 Sunny 36 2.2 35 1.7 97 97 N N/A 30.40 1029 9 14 N/A
7:53 am 07:53 Sunny 43 6.1 40 4.4 89 89 SW 3 6 30.42 1030 10 16 N/A
8:53 am 08:53 Sunny 51 10.6 36 2.2 56 56 NE 3 6 30.42 1030 10 16 N/A
9:53 am 09:53 Sunny 57 13.9 38 3.3 49 49 N 7 11 30.42 1030 10 16 N/A
10:53 am 10:53 Sunny 60 15.6 34 1.1 38 38 NNE 7 11 30.42 1030 10 16 N/A
11:53 am 11:53 Sunny 62 16.7 34 1.1 35 35 E 10 17 30.41 1030 10 16 N/A
12:53 pm 12:53 Sunny 64 17.8 31 -0.6 29 29 E 9 15 30.40 1029 10 16 N/A
1:53 pm 13:53 Sunny 64 17.8 32 undefined 30 30 VRB 6 9 30.37 1029 10 16 N/A
2:53 pm 14:53 Sunny 66 18.9 32 undefined 28 28 ENE 10 17 30.36 1028 10 16 N/A
3:53 pm 15:53 Sunny 66 18.9 33 0.6 29 29 ENE 7 11 30.34 1027 10 16 N/A
4:53 pm 16:53 Sunny 67 19.4 33 0.6 28 28 NE 6 9 30.32 1027 10 16 N/A
5:53 pm 17:53 Partly Cloudy 65 18.3 31 -0.6 28 28 N 7 11 30.31 1026 10 16 N/A
6:53 pm 18:53 Mostly Sunny 63 17.2 35 1.7 35 35 ENE 5 7 30.30 1026 10 16 N/A
7:53 pm 19:53 Mostly Sunny 62 16.7 35 1.7 37 37 E 5 7 30.30 1026 10 16 N/A
8:53 pm 20:53 Clear 53 11.7 41 5 64 64 N N/A 30.30 1026 10 16 N/A
9:53 pm 21:53 Mostly Clear 50 10 42 5.6 74 74 N N/A 30.31 1027 10 16 N/A
10:53 pm 22:53 Mostly Cloudy 48 8.9 43 6.1 83 83 N N/A 30.33 1027 10 16 N/A
11:53 pm 23:53 Mostly Cloudy 46 7.8 42 5.6 86 86 N N/A 30.33 1027 10 16 N/A

Powered by AerisWeather